Wind_Speed
43 42 42 41 41 40 41 41 42 40 39 38 36 36 35 33 32 31 29 29 28 27 26 25 26 27 29 31 33 34 35 36 39 42 44 44 47 46 44 43 44 46 48 49
44 44 43 43 41 41 40 40 40 39 38 37 37 36 35 33 32 31 29 28 27 27 26 26 27 27 29 32 33 33 34 36 38 41 43 44 43 44 43 44 44 46 47 47
46 44 45 43 42 40 39 38 39 39 38 37 36 36 35 33 31 29 28 28 26 25 25 26 28 28 29 31 33 33 34 36 39 41 42 43 43 41 44 45 45 44 45 47
46 45 45 44 42 40 39 38 38 38 37 37 37 36 34 33 31 29 28 28 27 25 25 26 28 29 30 31 32 33 34 36 39 41 42 41 40 40 41 44 43 43 45 46
45 46 47 43 41 41 40 38 37 38 38 38 36 36 34 33 31 29 28 27 27 26 25 26 27 29 30 31 32 33 34 35 39 41 42 41 40 40 41 43 42 43 44 44
46 47 47 43 41 41 41 39 37 37 38 37 36 35 33 32 32 30 29 27 26 25 25 26 26 27 29 30 31 32 33 35 38 41 42 42 40 40 41 43 43 44 45 44
45 46 45 42 41 40 41 40 38 37 37 36 36 35 33 32 31 30 30 28 26 26 25 25 27 28 29 28 30 31 32 33 35 38 40 41 42 40 41 43 43 42 44 44
43 45 43 41 41 41 41 40 39 39 37 36 35 34 33 32 31 30 29 28 26 26 25 25 27 28 29 28 30 32 33 33 33 35 38 40 42 42 42 42 41 41 42 42
43 43 41 41 41 41 41 40 39 38 37 36 35 34 33 33 31 30 29 28 27 26 25 25 26 27 28 29 29 31 33 34 33 33 35 37 40 42 42 42 40 39 41 42
43 41 40 41 41 41 40 40 39 37 36 35 35 34 33 32 31 30 29 28 27 26 25 24 25 27 28 30 30 30 32 33 34 33 34 35 38 41 42 41 40 39 40 40
43 41 40 39 40 39 39 38 37 36 35 35 34 33 32 31 30 29 28 27 26 25 24 24 25 26 28 30 31 32 32 33 34 34 34 34 36 40 41 40 39 40 40 39
42 40 41 39 37 37 37 36 36 35 34 34 33 32 31 30 29 28 28 27 26 25 24 24 25 26 28 29 31 32 34 34 35 35 35 35 36 39 39 39 39 40 41 41
41 39 39 37 36 35 35 35 35 34 33 33 32 31 30 30 29 27 27 26 25 25 25 25 25 26 28 29 30 31 33 35 36 35 35 35 36 39 39 40 39 39 40 42
38 37 37 36 35 34 34 34 33 33 32 32 31 30 30 29 27 26 25 25 25 25 25 25 25 26 28 29 29 30 32 34 36 36 36 36 37 39 39 39 38 38 39 41
35 35 35 34 33 33 33 33 32 31 31 30 30 29 29 28 26 25 25 24 24 24 24 24 25 26 27 28 29 30 31 34 35 35 36 37 37 38 38 39 39 39 39 40
33 33 33 32 32 32 31 31 30 30 29 29 29 28 28 27 26 25 25 24 23 22 23 23 24 25 27 28 29 30 31 33 34 35 36 37 37 38 39 39 38 38 38 39
32 31 31 30 30 30 29 29 29 29 29 29 28 27 27 26 25 24 24 24 23 22 22 22 23 24 26 27 28 29 31 32 33 34 36 37 37 39 39 38 38 38 38 38
30 29 29 29 28 28 28 28 28 28 28 27 27 26 26 25 24 23 23 22 21 21 21 21 22 24 25 26 28 29 30 31 33 35 35 36 37 38 39 39 39 38 38 37
28 28 27 27 26 27 26 26 27 27 26 25 24 24 23 22 21 20 19 19 18 19 19 20 21 23 24 25 27 28 29 31 33 34 35 36 37 38 38 39 39 39 38 37
26 26 25 25 26 26 26 26 25 25 24 23 22 22 21 20 18 18 18 17 16 17 18 19 20 22 24 25 26 27 28 29 31 33 35 35 36 37 38 39 39 40 39 37
24 24 25 25 25 25 25 24 23 23 22 21 20 20 19 18 17 16 16 15 16 17 18 19 20 21 22 24 25 26 26 27 29 30 32 34 35 36 37 37 38 39 39 37
24 24 25 25 24 24 23 23 22 20 19 18 18 17 16 16 16 15 14 14 15 16 17 18 19 20 21 23 24 25 26 27 27 28 30 33 34 35 36 37 38 38 38 37
24 23 23 24 23 23 22 21 19 18 17 16 15 15 15 15 14 14 14 14 14 15 16 18 19 20 21 22 23 24 25 26 28 29 30 32 33 34 35 37 37 37 37 36
23 23 23 23 22 20 20 18 17 16 16 15 15 14 14 14 14 14 14 13 14 14 16 17 19 20 21 21 22 24 25 27 28 29 29 30 31 32 33 35 36 36 36 36
22 22 22 21 19 18 18 17 16 15 15 15 15 15 14 14 14 13 13 13 13 14 15 17 18 20 21 21 22 23 25 26 27 29 29 30 31 32 32 32 34 35 36 36
21 21 20 19 18 17 16 15 15 15 15 15 14 14 14 14 13 13 12 12 13 13 14 16 17 19 20 21 22 23 24 26 27 28 30 30 32 33 32 31 32 34 35 35
20 19 18 17 17 16 15 15 15 15 15 14 14 14 13 12 11 11 11 11 12 13 14 15 17 18 19 21 22 23 24 25 27 28 29 30 31 32 31 30 31 32 33 33
Wind_Direction
306 307 307 308 309 308 307 307 305 307 306 308 308 305 303 301 298 296 295 292 284 275 268 261 256 250 244 239 235 233 230 227 223 219 218 218 217 217 217 218 217 218 218 219
303 305 305 306 307 307 306 307 305 304 304 305 305 304 303 302 298 295 292 290 285 276 267 259 254 250 245 239 237 234 231 226 221 218 216 216 215 218 218 219 220 218 217 217
302 303 303 305 309 308 306 306 305 304 305 304 303 302 302 302 298 293 291 289 285 278 266 259 254 250 245 241 239 236 231 225 222 220 218 217 217 219 218 218 219 218 219 218
301 301 301 307 307 306 305 305 305 304 304 303 302 301 301 300 297 292 290 288 286 280 269 260 254 249 245 242 238 235 233 226 221 220 218 217 218 218 217 217 217 215 217 217
298 299 301 305 306 305 304 304 304 304 303 302 301 300 298 296 295 291 288 285 283 279 270 262 255 249 246 242 238 235 233 228 224 220 219 219 219 219 218 217 215 215 214 215
296 297 301 305 304 303 302 303 304 303 303 301 300 299 298 295 293 289 286 284 280 277 270 263 255 250 244 241 237 235 231 228 224 223 222 221 219 219 218 217 215 215 213 212
295 296 299 304 302 302 302 304 304 303 303 301 300 299 298 295 292 289 284 282 279 275 270 263 254 247 242 239 233 231 228 225 224 223 223 222 220 218 218 217 214 212 213 214
293 294 298 300 299 300 301 301 302 302 302 301 300 299 297 295 292 289 285 279 275 272 269 263 253 245 241 238 233 231 228 226 222 221 221 221 221 219 218 215 212 212 213 215
291 294 296 297 297 297 298 299 300 300 300 300 299 298 295 293 290 286 284 279 274 270 266 261 252 245 239 236 233 232 229 226 224 223 221 220 219 217 216 214 212 213 214 214
291 293 294 294 295 295 296 297 298 299 298 298 298 297 294 292 289 285 282 279 273 268 264 256 250 245 238 234 231 228 226 226 225 221 216 217 216 214 212 212 213 213 211 212
290 292 291 291 292 292 294 296 297 297 297 297 297 296 293 292 289 285 282 277 271 266 259 253 249 244 239 235 232 228 224 223 221 220 217 215 214 211 210 209 210 211 211 212
289 290 290 291 292 291 293 295 295 296 295 295 295 295 293 292 290 286 281 275 268 261 256 253 249 243 239 236 232 228 225 223 222 220 219 217 214 210 209 209 209 210 210 211
288 288 289 291 291 290 292 293 293 294 294 294 294 294 294 293 291 286 282 274 266 260 256 253 248 242 239 236 231 226 222 221 220 219 219 218 214 211 210 209 209 211 211 210
287 288 288 289 288 288 290 291 292 293 293 293 293 294 294 294 291 286 281 274 267 260 255 251 247 243 239 236 232 228 222 220 219 220 222 218 214 211 210 209 209 208 209 211
287 287 288 287 287 289 290 291 291 292 292 293 293 293 293 292 289 283 278 274 269 262 255 250 246 242 238 233 230 227 223 220 219 220 219 216 214 212 211 209 209 210 210 211
286 287 288 287 288 290 291 292 292 291 292 293 293 292 292 290 287 282 277 273 270 264 257 250 244 239 234 230 227 224 222 220 219 218 217 216 215 214 212 210 210 210 210 211
286 287 287 287 289 290 290 291 291 291 292 293 293 292 291 288 285 281 276 273 268 262 256 249 241 234 229 227 226 223 221 219 217 216 215 216 215 214 213 211 209 209 210 210
285 286 287 288 289 289 290 291 292 292 293 292 291 291 290 286 283 280 275 272 265 258 253 245 237 231 227 226 224 222 219 217 215 215 215 215 214 214 212 210 209 209 209 210
286 287 288 289 289 290 291 292 293 293 292 292 291 290 287 284 282 278 273 269 262 254 245 238 235 230 227 225 222 221 219 217 215 216 215 215 214 213 211 210 210 209 209 208
286 287 288 289 290 291 291 292 293 293 293 292 290 288 285 283 282 278 272 267 258 247 239 236 233 229 226 223 219 218 217 216 215 215 214 214 212 211 209 208 208 208 207 207
287 288 289 290 291 292 292 293 294 293 293 293 290 287 284 281 279 278 274 266 257 248 241 235 230 227 224 221 217 216 215 214 213 212 211 210 208 208 207 206 206 209 208 207
288 289 291 292 292 292 292 293 294 293 292 292 290 285 282 280 277 275 272 264 256 250 241 232 227 224 221 218 214 212 211 211 210 209 208 207 208 208 208 206 207 208 209 210
289 291 292 292 292 292 290 292 293 291 290 290 289 285 281 280 277 274 270 263 255 250 240 229 224 220 218 216 213 211 210 210 209 208 207 207 207 208 207 207 208 209 210 210
290 292 293 292 291 289 288 289 289 289 290 290 288 285 281 279 275 273 269 262 254 245 233 224 220 218 216 216 214 212 211 209 208 207 207 206 206 206 205 206 207 208 208 208
290 291 292 291 288 286 286 285 285 288 292 291 287 284 282 279 276 272 268 260 250 241 230 222 218 216 214 213 212 211 209 207 208 207 206 206 206 203 203 204 205 205 206 205
289 291 291 289 285 283 283 283 284 287 290 290 287 284 283 280 274 268 265 257 246 237 228 222 218 215 213 211 210 208 207 207 207 206 204 204 203 201 201 203 204 203 202 203
286 287 287 285 284 284 284 284 286 286 288 288 285 284 283 278 271 268 262 252 242 234 227 222 218 216 213 210 207 206 205 204 203 200 199 199 200 199 198 198 200 199 199 199
Height
5571 5566 5561 5556 5552 5545 5538 5532 5526 5523 5518 5515 5510 5505 5501 5496 5492 5488 5486 5483 5481 5479 5478 5478 5478 5479 5480 5483 5486 5490 5494 5498 5504 5510 5517 5524 5531 5539 5547 5555 5564 5572 5580 5590
5560 5556 5550 5546 5543 5537 5530 5524 5518 5513 5510 5508 5502 5497 5492 5489 5484 5481 5478 5476 5474 5472 5471 5471 5471 5472 5474 5477 5480 5484 5487 5492 5497 5503 5510 5518 5525 5532 5540 5548 5556 5565 5573 5582
5548 5545 5538 5535 5534 5527 5521 5516 5510 5505 5502 5498 5493 5489 5484 5481 5477 5473 5471 5468 5467 5465 5464 5464 5465 5466 5468 5471 5474 5477 5481 5485 5490 5497 5504 5511 5519 5526 5533 5541 5550 5558 5566 5576
5535 5533 5527 5529 5523 5517 5511 5507 5502 5496 5492 5488 5484 5480 5476 5472 5468 5466 5463 5461 5459 5458 5457 5457 5458 5459 5461 5464 5467 5470 5474 5479 5484 5490 5497 5504 5512 5519 5526 5534 5543 5551 5560 5569
5523 5518 5515 5518 5513 5506 5500 5498 5494 5488 5483 5479 5475 5471 5468 5464 5460 5458 5456 5453 5452 5451 5450 5450 5451 5452 5454 5457 5460 5464 5468 5473 5478 5484 5491 5498 5505 5512 5519 5527 5535 5544 5553 5561
5512 5506 5504 5507 5502 5495 5490 5488 5486 5479 5474 5470 5465 5462 5460 5456 5452 5450 5448 5446 5444 5443 5443 5443 5444 5445 5447 5450 5453 5457 5461 5466 5472 5478 5485 5492 5499 5505 5512 5520 5528 5537 5546 5555
5501 5494 5493 5496 5490 5484 5481 5479 5474 5469 5464 5460 5457 5453 5450 5447 5444 5441 5439 5438 5437 5436 5436 5436 5436 5438 5441 5443 5446 5450 5455 5460 5465 5472 5478 5485 5492 5498 5505 5513 5522 5530 5539 5548
5491 5485 5486 5484 5478 5475 5471 5467 5463 5459 5455 5451 5448 5444 5441 5438 5435 5432 5431 5429 5428 5428 5428 5428 5429 5431 5434 5436 5440 5443 5448 5452 5459 5465 5471 5478 5484 5491 5499 5506 5515 5523 5532 5540
5481 5480 5477 5472 5468 5464 5460 5457 5453 5449 5446 5442 5438 5435 5432 5429 5426 5424 5422 5421 5420 5420 5420 5420 5421 5423 5427 5430 5433 5437 5441 5447 5453 5458 5464 5471 5477 5484 5492 5500 5508 5517 5525 5534
5469 5469 5465 5461 5457 5453 5450 5446 5443 5439 5436 5432 5429 5426 5423 5420 5417 5415 5413 5412 5412 5412 5412 5413 5414 5416 5419 5423 5426 5431 5435 5441 5446 5452 5458 5464 5471 5478 5486 5493 5502 5510 5518 5527
5457 5457 5453 5450 5446 5443 5439 5436 5433 5430 5426 5423 5419 5416 5413 5411 5408 5406 5405 5404 5403 5403 5404 5405 5407 5409 5412 5415 5420 5424 5429 5434 5440 5446 5452 5458 5464 5472 5479 5487 5495 5504 5511 5520
5445 5444 5440 5439 5436 5432 5429 5426 5423 5420 5417 5413 5410 5408 5405 5402 5400 5398 5396 5395 5395 5395 5396 5398 5399 5402 5404 5408 5412 5417 5422 5427 5433 5439 5445 5452 5458 5465 5472 5480 5488 5496 5504 5512
5434 5432 5429 5427 5425 5421 5419 5416 5413 5410 5407 5404 5401 5398 5396 5393 5391 5389 5387 5386 5386 5387 5388 5390 5392 5394 5397 5400 5404 5409 5414 5420 5426 5432 5438 5445 5451 5458 5465 5473 5481 5489 5497 5505
5422 5420 5418 5416 5414 5411 5409 5406 5403 5400 5398 5395 5392 5389 5387 5384 5382 5380 5379 5378 5378 5379 5380 5382 5384 5386 5389 5392 5396 5401 5407 5413 5418 5425 5431 5437 5444 5451 5458 5466 5474 5482 5490 5498
5412 5409 5408 5406 5404 5401 5399 5396 5394 5391 5389 5386 5383 5380 5378 5375 5373 5372 5371 5370 5370 5370 5372 5374 5376 5378 5381 5384 5389 5394 5399 5405 5411 5417 5424 5431 5437 5444 5452 5460 5468 5476 5483 5491
5402 5399 5397 5396 5394 5392 5389 5387 5384 5382 5379 5377 5374 5372 5369 5367 5365 5363 5362 5362 5362 5363 5364 5366 5368 5371 5374 5378 5382 5387 5392 5398 5403 5410 5417 5424 5431 5438 5445 5453 5461 5469 5476 5483
5392 5390 5388 5386 5385 5382 5380 5377 5375 5373 5370 5368 5365 5363 5361 5358 5357 5355 5354 5354 5354 5355 5356 5358 5360 5363 5367 5371 5376 5380 5385 5390 5396 5403 5410 5417 5423 5431 5438 5445 5453 5461 5469 5476
5382 5381 5379 5378 5375 5373 5371 5369 5366 5364 5362 5359 5357 5354 5352 5350 5349 5347 5346 5346 5346 5347 5349 5351 5353 5357 5361 5365 5369 5374 5378 5384 5390 5396 5403 5410 5416 5423 5431 5438 5446 5454 5462 5469
5373 5372 5370 5368 5366 5365 5362 5360 5358 5355 5353 5350 5348 5346 5344 5343 5341 5340 5339 5339 5340 5341 5342 5344 5347 5351 5354 5358 5363 5367 5372 5377 5383 5389 5396 5402 5409 5416 5423 5431 5439 5447 5455 5462
5365 5364 5362 5360 5358 5356 5354 5352 5349 5347 5345 5342 5341 5339 5337 5336 5335 5334 5334 5333 5334 5335 5337 5339 5342 5345 5348 5352 5357 5361 5366 5371 5376 5382 5389 5395 5401 5408 5416 5424 5432 5440 5448 5455
5357 5356 5354 5352 5350 5348 5346 5344 5341 5339 5337 5335 5333 5332 5331 5330 5329 5328 5328 5328 5328 5329 5331 5334 5336 5339 5343 5347 5351 5356 5360 5365 5371 5376 5382 5388 5395 5402 5409 5416 5425 5433 5440 5448
5350 5348 5346 5344 5342 5340 5338 5336 5334 5332 5330 5328 5327 5326 5325 5324 5323 5323 5322 5323 5323 5324 5326 5328 5331 5334 5337 5341 5346 5350 5355 5360 5365 5370 5376 5382 5389 5396 5403 5410 5418 5425 5433 5441
5342 5340 5339 5337 5335 5333 5331 5329 5327 5325 5324 5322 5321 5320 5319 5318 5318 5318 5318 5317 5318 5319 5321 5323 5326 5329 5332 5336 5341 5345 5350 5355 5360 5365 5371 5377 5383 5390 5396 5404 5411 5418 5426 5433
5334 5333 5331 5329 5327 5326 5324 5322 5321 5319 5318 5316 5315 5314 5314 5313 5313 5312 5312 5312 5313 5314 5315 5318 5321 5324 5328 5332 5336 5340 5345 5350 5355 5360 5365 5371 5377 5384 5390 5397 5404 5412 5419 5427
5327 5325 5324 5322 5321 5319 5318 5316 5315 5314 5312 5311 5310 5309 5308 5308 5308 5307 5307 5307 5308 5309 5311 5313 5316 5319 5323 5327 5331 5335 5340 5344 5350 5355 5360 5366 5372 5379 5385 5392 5399 5406 5413 5420
5320 5318 5317 5315 5314 5313 5312 5311 5309 5308 5307 5306 5305 5304 5303 5302 5302 5302 5302 5302 5303 5305 5306 5309 5311 5315 5318 5322 5326 5330 5335 5340 5345 5350 5356 5361 5368 5374 5380 5387 5394 5400 5408 5415
5313 5311 5310 5309 5308 5307 5306 5305 5304 5303 5302 5301 5300 5299 5298 5297 5297 5297 5297 5298 5299 5300 5302 5304 5307 5310 5313 5317 5321 5325 5330 5335 5340 5345 5351 5357 5363 5370 5376 5382 5389 5395 5403 5410